When you browse on this site, cookies collect data to enhance your experience and personalize the content and advertising you see.
Visit our Privacy Policy to learn more. By continuing to use the site, you agree to this use of cookies and data.
  • In Switzerland
  • List of Countries
  • For 7 days
  • Water Temperature
  • Satellite Maps
  • Weather Map
  • Weather Widgets
  • user-avatar
    Login

    Hourly Weather Nairobi

    Today, 24 March, Sunday

    Time Temperature Precipitation Wind Pressure Humidity
    00:00 +19°C° 0 mm 5 mps 623 mmHg 68%
    01:00 +18°C° 0 mm 4 mps 622 mmHg 72%
    02:00 +18°C° 0 mm 4 mps 622 mmHg 70%
    03:00 +17°C° 0 mm 4 mps 622 mmHg 73%
    04:00 +17°C° 0 mm 3 mps 621 mmHg 75%
    05:00 +16°C° 0 mm 3 mps 621 mmHg 78%
    06:00 +18°C° 0 mm 3 mps 622 mmHg 71%
    07:00 +20°C° 0 mm 4 mps 623 mmHg 64%
    08:00 +21°C° 0 mm 4 mps 624 mmHg 58%
    09:00 +23°C° 0 mm 4 mps 624 mmHg 49%
    10:00 +26°C° 0 mm 5 mps 625 mmHg 41%
    11:00 +28°C° 0 mm 5 mps 625 mmHg 32%
    12:00 +29°C° 0 mm 5 mps 625 mmHg 30%
    13:00 +30°C° 0 mm 5 mps 624 mmHg 27%
    14:00 +32°C° 0 mm 5 mps 624 mmHg 25%
    15:00 +30°C° 0 mm 5 mps 623 mmHg 28%
    16:00 +29°C° 0 mm 5 mps 623 mmHg 32%
    17:00 +28°C° 0 mm 5 mps 622 mmHg 35%
    18:00 +26°C° 0 mm 5 mps 622 mmHg 45%
    19:00 +23°C° 0 mm 5 mps 622 mmHg 55%
    20:00 +21°C° 0 mm 5 mps 622 mmHg 65%
    21:00 +20°C° 0 mm 5 mps 622 mmHg 69%
    22:00 +20°C° 0 mm 4 mps 622 mmHg 72%
    23:00 +19°C° 0 mm 4 mps 623 mmHg 76%

    Tomorrow, 25 March, Monday

    Time Temperature Precipitation Wind Pressure Humidity
    00:00 +18°C° 0 mm 4 mps 622 mmHg 79%
    01:00 +18°C° 0 mm 3 mps 622 mmHg 82%
    02:00 +17°C° 0 mm 3 mps 621 mmHg 85%
    03:00 +17°C° 0 mm 2 mps 621 mmHg 86%
    04:00 +16°C° 0 mm 2 mps 621 mmHg 88%
    05:00 +16°C° 0 mm 2 mps 621 mmHg 89%
    06:00 +18°C° 0 mm 2 mps 622 mmHg 77%
    07:00 +20°C° 0 mm 2 mps 623 mmHg 65%
    08:00 +23°C° 0 mm 2 mps 624 mmHg 53%
    09:00 +25°C° 0 mm 3 mps 625 mmHg 42%
    10:00 +28°C° 0 mm 3 mps 625 mmHg 31%
    11:00 +30°C° 0 mm 4 mps 625 mmHg 20%
    12:00 +32°C° 0 mm 4 mps 625 mmHg 19%
    13:00 +32°C° 0 mm 4 mps 624 mmHg 18%
    14:00 +33°C° 0 mm 5 mps 623 mmHg 18%
    15:00 +32°C° 0 mm 5 mps 623 mmHg 21%
    16:00 +30°C° 0 mm 5 mps 623 mmHg 24%
    17:00 +29°C° 0 mm 5 mps 622 mmHg 28%
    18:00 +27°C° 0 mm 5 mps 623 mmHg 37%
    19:00 +25°C° 0 mm 5 mps 623 mmHg 46%
    20:00 +22°C° 0 mm 5 mps 623 mmHg 54%
    21:00 +21°C° 0 mm 5 mps 623 mmHg 59%
    22:00 +21°C° 0 mm 5 mps 623 mmHg 63%
    23:00 +20°C° 0 mm 4 mps 623 mmHg 67%

    Day after tomorrow, 26 March, Tuesday

    Time Temperature Precipitation Wind Pressure Humidity
    00:00 +19°C° 0 mm 4 mps 623 mmHg 70%
    01:00 +19°C° 0 mm 4 mps 622 mmHg 73%
    02:00 +18°C° 0 mm 3 mps 622 mmHg 75%
    03:00 +18°C° 0 mm 3 mps 622 mmHg 78%
    04:00 +17°C° 0 mm 2 mps 622 mmHg 80%
    05:00 +17°C° 0 mm 2 mps 622 mmHg 83%
    06:00 +18°C° 0 mm 2 mps 623 mmHg 74%
    07:00 +20°C° 0 mm 2 mps 624 mmHg 65%
    08:00 +22°C° 0 mm 3 mps 625 mmHg 57%
    09:00 +26°C° 0 mm 3 mps 625 mmHg 46%
    10:00 +28°C° 0 mm 4 mps 626 mmHg 36%
    11:00 +30°C° 0 mm 4 mps 626 mmHg 26%
    12:00 +32°C° 0 mm 5 mps 625 mmHg 24%
    13:00 +33°C° 0 mm 5 mps 625 mmHg 22%
    14:00 +33°C° 0 mm 5 mps 624 mmHg 21%
    15:00 +32°C° 0 mm 6 mps 624 mmHg 24%
    16:00 +30°C° 0 mm 6 mps 624 mmHg 27%
    17:00 +29°C° 0 mm 6 mps 624 mmHg 30%
    18:00 +27°C° 0 mm 6 mps 624 mmHg 38%
    19:00 +24°C° 0 mm 6 mps 624 mmHg 45%
    20:00 +23°C° 0 mm 6 mps 624 mmHg 53%
    21:00 +22°C° 0 mm 5 mps 625 mmHg 57%
    22:00 +21°C° 0 mm 5 mps 625 mmHg 61%
    23:00 +21°C° 0 mm 5 mps 625 mmHg 64%

    27 March, Wednesday

    Time Temperature Precipitation Wind Pressure Humidity
    00:00 +20°C° 0 mm 4 mps 624 mmHg 67%
    01:00 +19°C° 0 mm 4 mps 623 mmHg 70%
    02:00 +19°C° 0 mm 3 mps 623 mmHg 73%
    03:00 +18°C° 0 mm 3 mps 623 mmHg 76%
    04:00 +18°C° 0 mm 3 mps 623 mmHg 78%
    05:00 +17°C° 0 mm 2 mps 623 mmHg 80%
    06:00 +19°C° 0 mm 3 mps 624 mmHg 73%
    07:00 +21°C° 0 mm 3 mps 625 mmHg 66%
    08:00 +23°C° 0 mm 4 mps 626 mmHg 58%
    09:00 +26°C° 0 mm 4 mps 627 mmHg 51%
    10:00 +28°C° 0 mm 5 mps 627 mmHg 44%
    11:00 +30°C° 0 mm 5 mps 627 mmHg 36%
    12:00 +30°C° 0 mm 6 mps 626 mmHg 35%
    13:00 +32°C° 0 mm 6 mps 626 mmHg 34%
    14:00 +32°C° 0 mm 6 mps 625 mmHg 32%
    15:00 +30°C° 0.2 mm 6 mps 625 mmHg 38%
    16:00 +28°C° 0.2 mm 6 mps 625 mmHg 44%
    17:00 +27°C° 0.2 mm 6 mps 625 mmHg 50%
    18:00 +24°C° 0.4 mm 6 mps 624 mmHg 59%
    19:00 +22°C° 0.4 mm 5 mps 624 mmHg 69%
    20:00 +21°C° 0.4 mm 4 mps 624 mmHg 78%
    21:00 +20°C° 0.1 mm 4 mps 624 mmHg 81%
    22:00 +20°C° 0.1 mm 4 mps 624 mmHg 84%
    23:00 +19°C° 0.1 mm 3 mps 624 mmHg 87%

    28 March, Thursday

    Time Temperature Precipitation Wind Pressure Humidity
    00:00 +19°C° 0.1 mm 3 mps 624 mmHg 89%
    01:00 +18°C° 0.1 mm 3 mps 624 mmHg 90%
    02:00 +18°C° 0.1 mm 3 mps 623 mmHg 91%
    03:00 +18°C° 0.1 mm 3 mps 624 mmHg 91%
    04:00 +18°C° 0.1 mm 3 mps 624 mmHg 90%
    05:00 +18°C° 0.1 mm 3 mps 624 mmHg 89%
    06:00 +19°C° 0 mm 3 mps 625 mmHg 83%
    07:00 +20°C° 0 mm 3 mps 626 mmHg 76%
    08:00 +21°C° 0 mm 3 mps 626 mmHg 70%
    09:00 +22°C° 0 mm 4 mps 626 mmHg 62%
    10:00 +25°C° 0 mm 4 mps 626 mmHg 55%
    11:00 +27°C° 0 mm 5 mps 626 mmHg 47%
    12:00 +28°C° 0.1 mm 5 mps 626 mmHg 45%
    13:00 +28°C° 0.1 mm 5 mps 625 mmHg 43%
    14:00 +29°C° 0.1 mm 6 mps 625 mmHg 40%
    15:00 +28°C° 0 mm 6 mps 624 mmHg 46%
    16:00 +26°C° 0 mm 6 mps 624 mmHg 51%
    17:00 +24°C° 0 mm 6 mps 624 mmHg 56%
    18:00 +23°C° 0 mm 6 mps 624 mmHg 64%
    19:00 +21°C° 0 mm 5 mps 624 mmHg 72%
    20:00 +20°C° 0 mm 5 mps 624 mmHg 80%
    21:00 +19°C° 0 mm 4 mps 624 mmHg 83%
    22:00 +18°C° 0 mm 4 mps 624 mmHg 86%
    23:00 +18°C° 0 mm 3 mps 623 mmHg 89%

    29 March, Friday

    Time Temperature Precipitation Wind Pressure Humidity
    00:00 +17°C° 0 mm 3 mps 623 mmHg 88%
    01:00 +17°C° 0 mm 3 mps 622 mmHg 87%
    02:00 +17°C° 0 mm 2 mps 622 mmHg 86%
    03:00 +16°C° 0 mm 2 mps 622 mmHg 85%
    04:00 +16°C° 0 mm 2 mps 622 mmHg 83%
    05:00 +16°C° 0 mm 2 mps 623 mmHg 82%
    06:00 +18°C° 0 mm 2 mps 624 mmHg 73%
    07:00 +20°C° 0 mm 2 mps 625 mmHg 64%
    08:00 +24°C° 0 mm 3 mps 626 mmHg 54%
    09:00 +26°C° 0 mm 3 mps 626 mmHg 46%
    10:00 +28°C° 0 mm 4 mps 626 mmHg 38%
    11:00 +30°C° 0 mm 4 mps 626 mmHg 30%
    12:00 +30°C° 0 mm 4 mps 625 mmHg 30%
    13:00 +32°C° 0 mm 5 mps 625 mmHg 31%
    14:00 +32°C° 0 mm 5 mps 624 mmHg 31%
    15:00 +30°C° 0.2 mm 5 mps 624 mmHg 37%
    16:00 +28°C° 0.2 mm 5 mps 623 mmHg 43%
    17:00 +27°C° 0.2 mm 5 mps 623 mmHg 49%
    18:00 +25°C° 1.4 mm 5 mps 623 mmHg 59%
    19:00 +22°C° 1.4 mm 5 mps 623 mmHg 70%
    20:00 +20°C° 1.4 mm 4 mps 623 mmHg 80%
    21:00 +20°C° 0.4 mm 4 mps 623 mmHg 83%
    22:00 +19°C° 0.4 mm 4 mps 623 mmHg 85%
    23:00 +19°C° 0.4 mm 4 mps 623 mmHg 88%
    Show more